Погода в Маратее

Италия     39°59′46″N   15°43′17″E
темп.,
°C
ветер,
м/с
пор.,
м/с
влажн.,
%
обл.,
%
осадки,
мм/ч
давл.,
гПа
погр.,
м
22 апреля, чт
чт2223:00+11св4458100 0.0 101944
02:00+11св4466100 0.3 101984
05:00+11в1184100 1.5 101973
08:00+11юв3492100 4.6 1020252
11:00+12ююв3484100 4.4 1020309
14:00+12ссв1187100 5.9 1019120
17:00+15сз1266100 0.0 1017488
20:00+11ююз3493100 1.9 1019309
23 апреля, пт
пт2323:00+11св1191100 4.2 101875
02:00+11в1189100 7.7 1018182
05:00+12св2285100 0.3 101742
08:00+12всв3487100 3.5 1017140
11:00+13всв4585100 0.4 1017219
14:00+13св4585100 0.8 1017274
17:00+12св4584100 0.7 1016287
20:00+12св4587100 2.6 1017174
24 апреля, сб
сб2423:00+12св4583100 0.8 1017203
02:00+11св2287100 3.9 1016114
05:00+11всв2287100 2.4 1015130
08:00+11св3583100 4.7 1017317
11:00+11св2481100 0.9 1017303
14:00+13св366986 0.9 10171021
17:00+15всв256217 0.0 1017774
20:00+12всв33720 0.1 101930
25 апреля, вс
вс2523:00+10всв54680 0.0 102071
02:00+9св44570 0.0 102065
05:00+9всв43560 0.0 102059
08:00+12всв22530 0.0 102099
11:00+13юз115929 0.0 1020400
14:00+12зюз216910 0.0 1021304
17:00+13з115617 0.0 1020186
20:00+12всв106142 0.0 102164
26 апреля, пн
пн2623:00+11св117216 0.0 102124
02:00+11всв227424 0.0 102039
05:00+11всв32725 0.0 101938
08:00+13в01675 0.0 101970
11:00+14зюз21625 0.0 1019271
14:00+16зюз22505 0.0 1018349
17:00+18ю1138100 0.0 1015226
20:00+15всв3344100 0.0 101416